MORELOS 3

Last updated on Tue Sep 22 2026 00:03:13 GMT+0000 (Coordinated Universal Time)

1 40946U 15056A 26264.48931628 -.00000044 00000+0 00000+0 0 9998 2 40946 3.2753 17.4067 0003304 186.5128 219.5127 1.00272437 40255
UTC large
Height (km)
Speed (km/s)
/
Latitude / Longitude
Inclination (degrees)
Orbital Period (minutes)
Azimuth
Elevation
Range (km)
Doppler Factor

Next 0 passes for location: London (51.5072 / 0.1276)

No passes found over London.
MORELOS 3